Weather History for KSSI - December, 2012

Change the Weather History Date:

Friday, December 7, 2012

  Actual Average Record
Temperature  
Mean Temperature 59 °F 56 °F  
Max Temperature 65 °F 65 °F 79 °F (1971)
Min Temperature 53 °F 47 °F 26 °F (1984)
Degree Days  
Heating Degree Days 6 10  
Month to date heating degree days 11 63  
Since 1 July heating degree days 242 243  
Cooling Degree Days 0 1  
Month to date cooling degree days 1 7  
Year to date cooling degree days 2909 2622  
Growing Degree Days 8 (Base 50)    
Moisture  
Dew Point 54 °F    
Average Humidity 89    
Maximum Humidity 100    
Minimum Humidity 78    
Precipitation  
Precipitation 0.00 in 0.08 in 0.65 in (1969)
Month to date precipitation T 0.56  
Year to date precipitation 39.36 42.92  
Snow  
Snow 0.00 in - 0.00 in ()
Month to date snowfall 0.0  
Since 1 July snowfall 0.0  
Snow Depth 0.00 in    
Sea Level Pressure  
Sea Level Pressure 30.03 in    
Wind  
Wind Speed 6 mph (NNE)    
Max Wind Speed 18 mph    
Max Gust Speed 25 mph    
Visibility 6 miles    
Events Fog    
T = Trace of Precipitation, MM = Missing Value Source: NWS Daily Summary

Daily Weather History Graph

Daily Weather History Graph

Search for Another Location

Airport or City:

Trip Planner

Search our weather history database for the weather conditions in past years. The results will help you decide how hot, cold, wet, or windy it might be!

Date:

Astronomy

Dec. 07, 2012 Rise Set
Actual Time 7:11 AM EST 5:23 PM EST
Civil Twilight 6:44 AM EST 5:49 PM EST
Nautical Twilight 6:14 AM EST 6:19 PM EST
Astronomical Twilight 5:45 AM EST 6:49 PM EST
Moon 12:50 AM EST (12/7) 1:00 PM EST (12/7)
Length of Visible Light 11h 04m
Length of Day
10h 11m
Last Quarter, 39% of the Moon is Illuminated
Dec 7
Last Quarter
Dec 13
New
Dec 20
First Quarter
Dec 28
Full
Jan 4
Last Quarter

Hourly Weather History & Observations

Time (EST) Temp. Dew Point Humidity Pressure Visibility Wind Dir Wind Speed Gust Speed Precip Events Conditions
12:53 AM 59.0 °F 55.9 °F 90% 30.04 in 8.0 mi North 16.1 mph 23.0 mph N/A   Overcast
1:53 AM 59.0 °F 55.9 °F 90% 30.04 in 8.0 mi NNE 15.0 mph 24.2 mph N/A   Overcast
2:53 AM 57.9 °F 55.0 °F 90% 30.03 in 9.0 mi North 15.0 mph 25.3 mph N/A   Overcast
3:53 AM 57.9 °F 55.0 °F 90% 30.02 in 9.0 mi North 10.4 mph - N/A   Overcast
4:53 AM 57.9 °F 55.0 °F 90% 30.01 in 10.0 mi NNE 8.1 mph 17.3 mph N/A   Overcast
5:53 AM 57.9 °F 55.0 °F 90% 30.02 in 10.0 mi North 11.5 mph - N/A   Overcast
6:53 AM 57.2 °F 55.4 °F 94% 30.04 in 7.0 mi North 10.4 mph - N/A   Overcast
7:07 AM 57.2 °F 55.4 °F 94% 30.04 in 4.0 mi North 10.4 mph - N/A   Overcast
7:24 AM 57.2 °F 55.4 °F 94% 30.05 in 2.5 mi North 10.4 mph - N/A   Overcast
7:43 AM 55.4 °F 55.4 °F 100% 30.06 in 1.2 mi North 8.1 mph - N/A   Overcast
7:53 AM 55.9 °F 55.0 °F 97% 30.06 in 1.5 mi North 8.1 mph - N/A   Overcast
8:35 AM 55.4 °F 55.4 °F 100% 30.05 in 2.0 mi North 9.2 mph - N/A   Overcast
8:53 AM 55.9 °F 55.0 °F 97% 30.05 in 4.0 mi NNW 6.9 mph - N/A   Overcast
9:53 AM 57.0 °F 54.0 °F 89% 30.07 in 7.0 mi NNW 9.2 mph - N/A   Overcast
10:53 AM 57.9 °F 53.1 °F 84% 30.08 in 10.0 mi NNW 9.2 mph - N/A   Overcast
11:32 AM 60.8 °F 53.6 °F 77% 30.06 in 10.0 mi North 8.1 mph - N/A   Overcast
11:53 AM 60.1 °F 53.1 °F 78% 30.05 in 10.0 mi North 5.8 mph - N/A   Overcast
12:53 PM 63.0 °F 55.0 °F 75% 30.01 in 10.0 mi NNW 4.6 mph - N/A   Overcast
1:53 PM 60.1 °F 55.9 °F 86% 30.01 in 10.0 mi NNW 3.5 mph - N/A   Overcast
2:26 PM 64.4 °F 55.4 °F 73% 30.00 in 10.0 mi Variable 3.5 mph - N/A   Overcast
2:53 PM 62.1 °F 55.0 °F 78% 29.99 in 10.0 mi East 9.2 mph - N/A   Overcast
3:53 PM 60.1 °F 55.0 °F 83% 29.99 in 10.0 mi East 4.6 mph - N/A   Overcast
4:53 PM 60.1 °F 55.0 °F 83% 29.99 in 9.0 mi East 4.6 mph - N/A   Mostly Cloudy
5:16 PM 59.0 °F 55.4 °F 88% 29.99 in 8.0 mi East 5.8 mph - N/A   Partly Cloudy
5:53 PM 57.9 °F 55.0 °F 90% 30.00 in 8.0 mi East 3.5 mph - N/A   Mostly Cloudy
6:32 PM 57.2 °F 55.4 °F 94% 30.01 in 8.0 mi Calm Calm - N/A   Scattered Clouds
6:53 PM 57.0 °F 54.0 °F 89% 30.01 in 8.0 mi Calm Calm - N/A   Partly Cloudy
7:53 PM 55.4 °F 53.6 °F 94% 30.03 in 6.0 mi Calm Calm - N/A   Clear
8:53 PM 55.9 °F 55.0 °F 97% 30.04 in 5.0 mi Calm Calm - N/A   Partly Cloudy
9:53 PM 55.9 °F 54.0 °F 93% 30.04 in 4.0 mi Calm Calm - N/A   Clear
10:23 PM 55.4 °F 53.6 °F 94% 30.04 in 1.0 mi Calm Calm - N/A   Mist
10:30 PM 55.4 °F 53.6 °F 94% 30.04 in 0.5 mi Calm Calm - N/A Fog Fog
10:34 PM 53.6 °F 53.6 °F 100% 30.04 in 1.8 mi Calm Calm - N/A   Partly Cloudy
10:38 PM 53.6 °F 53.6 °F 100% 30.04 in 3.0 mi Calm Calm - N/A   Partly Cloudy
10:53 PM 54.0 °F 53.1 °F 97% 30.04 in 4.0 mi Calm Calm - N/A   Partly Cloudy
11:13 PM 53.6 °F 53.6 °F 100% 30.04 in 2.0 mi Calm Calm - N/A   Mostly Cloudy
11:17 PM 53.6 °F 53.6 °F 100% 30.04 in 0.8 mi Calm Calm - N/A   Mostly Cloudy
11:30 PM 53.6 °F 53.6 °F 100% 30.04 in 0.5 mi Calm Calm - N/A Fog Fog
11:34 PM 53.6 °F 51.8 °F 94% 30.04 in 0.2 mi Calm Calm - N/A Fog Fog
11:53 PM 53.1 °F 52.0 °F 96% 30.03 in 1.0 mi Calm Calm - N/A   Mist
11:58 PM 53.6 °F 51.8 °F 94% 30.03 in 3.0 mi Calm Calm - N/A   Overcast